Location: Davidschlag
(48.4333°N, 14.2833°E)
Time: 19:48:19
(UTC+00:00)

STARLINK-1044 - Pass Details

Date: 27 February 2020
Orbit: 549 x 550 km, 53.0° (Epoch: 07 April)

Event Time Altitude Azimuth Distance (km) Brightness Sun altitude
Rises 18:45:56 0° 274° (W) 2,719 8.7 -21.1°
Reaches altitude 10° 18:48:15 10° 280° (W) 1,826 7.4 -21.5°
Maximum altitude 18:52:14 45° 354° (N) 763 4.4 -22.1°
Enters shadow 18:52:51 41° 20° (NNE) 804 4.3 -22.2°
